Regional Weather Roundup
Issued by NWS

Home | Current Version | Previous Version | Graphics & Text | Print | Product List | Glossary On
Versions: 1 2 3 4 5 6 7 8 9 10 11 12 13 14 15 16 17 18 19 20 21 22 23 24 25 26 27 28 29 30 31 32 33 34 35 36 37 38 39 40 41 42 43 44 45 46 47 48 49 50
000
ASUS45 KPSR 110310
RWRAZ

ARIZONA HOURLY REGIONAL WEATHER ROUNDUP
NATIONAL WEATHER SERVICE PHOENIX AZ
800 PM MST WED FEB 10 2016

NOTE: FAIR INDICATES FEW OR NO CLOUDS BELOW 12,000 FEET WITH NO
SIGNIFICANT WEATHER AND/OR OBSTRUCTIONS TO VISIBILITY.

AZZ001>003-036-110400-
NORTHWEST ARIZONA

CITY           SKY/WX    TMP DP  RH WIND       PRES   REMARKS
BULLHEAD CITY  CLEAR     68  27  21 NE8       30.17S
KINGMAN        CLEAR     47 N/A N/A E5        30.27R
$$

AZZ004>008-015-016-018-110400-
NORTH CENTRAL ARIZONA

CITY           SKY/WX    TMP DP  RH WIND       PRES   REMARKS
GRAND CANYON   CLEAR     31  20  63 NE5       30.39S WCI  26
WILLIAMS       CLEAR     36  19  51 S9        30.43F WCI  29
PRESCOTT       MOCLDY    46  25  43 S8        30.30R
FLAGSTAFF      PTCLDY    35  21  56 CALM      30.40S
PAYSON         PTCLDY    54  25  32 E3        30.31S
PAGE           CLEAR     44  28  53 SE3       30.33S
$$

AZZ009>014-017-110400-
NORTHEAST ARIZONA

CITY           SKY/WX    TMP DP  RH WIND       PRES   REMARKS
WINSLOW        MOCLDY    38  19  46 SW8       30.32S WCI  32
SAINT JOHNS    MOCLDY    39  19  44 S6        30.33S WCI  35
WINDOW ROCK    MOCLDY    38   0  20 E3        30.37S
SHOW LOW       PTCLDY    37  19  48 CALM      30.37S
$$

AZZ023-110400-
GREATER PHOENIX AREA

CITY           SKY/WX    TMP DP  RH WIND       PRES   REMARKS
PHOENIX        MOCLDY    76  26  15 CALM      30.10R
BUCKEYE        MOCLDY    63  32  31 N7        30.13S
GLENDALE       MOCLDY    72  30  21 CALM      30.12S
LUKE AFB       CLOUDY    65  35  32 CALM      30.10S
DEER VALLEY    MOCLDY    67  28  23 CALM      30.12S
SCOTTSDALE     MOCLDY    71  28  20 N5        30.14R
MESA-FALCON    PTCLDY   N/A N/A N/A N6        30.12S
MESA-GATEWAY   PTCLDY    70  30  23 CALM      30.13R
CHANDLER       MOCLDY    73  27  17 VRB6      30.12R
$$

AZZ027-028-110400-
SOUTHWEST MARICOPA COUNTY AND PINAL COUNTY

CITY           SKY/WX    TMP DP  RH WIND       PRES   REMARKS
CASA GRANDE    MOCLDY    70  27  19 NW7       30.13R
GILA BEND      FAIR      64  31  29 CALM      30.10R
$$

AZZ503-504-507>509-110400-
SOUTHEAST ARIZONA

CITY           SKY/WX    TMP DP  RH WIND       PRES   REMARKS
TUCSON         PTCLDY    67  19  16 SW3       30.18R
DAVIS-MONTHAN  PTCLDY    67  22  18 N2        30.16R
RYAN FIELD     CLEAR     66  27  22 W7        30.17R
NOGALES        CLEAR     56  17  21 E5        30.22R
SIERRA VISTA   CLEAR     56  19  23 SW10      30.28R
DOUGLAS        CLEAR     50  10  20 E7        30.24F
SAFFORD        PTCLDY    56  21  25 NE5       30.19F
$$

AZZ020-021-025-026-031-110400-
SOUTHWEST ARIZONA

CITY           SKY/WX    TMP DP  RH WIND       PRES   REMARKS
YUMA           PTCLDY    73  25  16 N7        30.09S
$$

CAZ031-033-041-043-047-048-061-110400-
SOUTHERN CALIFORNIA

CITY           SKY/WX    TMP DP  RH WIND       PRES   REMARKS
DOWNTOWN L.A.  CLEAR     68  39  34 CALM      30.08S
L.A. AIRPORT   CLEAR     65  44  46 W7        30.09R
SAN DIEGO      PTCLDY    72  30  21 CALM      30.10R
BURBANK        CLEAR     75  32  20 NW5       30.10R
ONTARIO        PTCLDY    72  35  25 CALM      30.10R
RIVERSIDE      CLEAR     74  33  22 W3        30.11R
PALM SPRINGS   CLEAR     71  34  25 N8        30.14R
EL CENTRO NAS  MOCLDY    70  24  17 CALM      30.10S
IMPERIAL       MOCLDY    70  32  24 CALM      30.08S
BLYTHE         PTCLDY    72  29  20 NW5       30.12R
NEEDLES        CLEAR     66  25  21 NW9       30.16S
$$

NVZ020-UTZ003-110400-
SOUTHERN NEVADA-UTAH

CITY           SKY/WX    TMP DP  RH WIND       PRES   REMARKS
LAS VEGAS      CLEAR     65  23  20 CALM      30.19S
SALT LAKE CITY CLOUDY    30  27  88 SW5       30.46F FOG     WCI  25
$$

NMZ009-TXZ055-110400-
NEW MEXICO-WEST TEXAS

CITY           SKY/WX    TMP DP  RH WIND       PRES   REMARKS
ALBUQUERQUE    CLOUDY    50  18  28 N9        30.30S
EL PASO        CLEAR     53  15  22 SE3       30.24S
$$


........................KEY........................
SKY/WX - SKY CONDITION/WEATHER
TMP    - TEMPERATURE IN FAHRENHEIT
DP     - DEW POINT IN FAHRENHEIT
RH     - RELATIVE HUMIDITY IN PERCENT
WIND   - DIRECTION AND SPEED IN MILES PER HOUR (MPH)
VRB    - VARIABLE WIND DIRECTION
PRES   - MEAN SEA LEVEL PRESSURE IN INCHES OF MERCURY
         F - FALLING PRESSURE   R - RISING PRESSURE
         S - STEADY PRESSURE
VSB    - VISIBILITY IN MILES
HX     - HEAT INDEX IN FAHRENHEIT
WCI    - WIND CHILL INDEX IN FAHRENHEIT
TC     - TEMPERATURE IN CELSIUS WHICH IS ALSO KNOWN AS
         TEMPERATURE IN CENTIGRADE
AFB    - AIR FORCE BASE
         LUKE AFB IS LUKE AIR FORCE BASE
         DAVIS-MONTHAN IS DAVIS-MONTHAN AIR FORCE BASE
NAS    - NAVAL AIR STATION
         EL CENTRO NAS IS EL CENTRO NAVAL AIR STATION
N/A    - NOT AVAILABLE




USA.gov is the U.S. government's official web portal to all federal, state and local government web resources and services.